TimeEST,TemperatureF,Dew PointF,Humidity,Sea Level PressureIn,VisibilityMPH,Wind Direction,Wind SpeedMPH,Gust SpeedMPH,PrecipitationIn,Events,Conditions,WindDirDegrees,DateUTC
12:53 AM,25.0,21.0,85,30.02,6.0,Calm,Calm,-,N/A,,Clear,0,2012-12-24 05:53:00
1:53 AM,24.1,19.9,84,30.02,6.0,Calm,Calm,-,N/A,,Clear,0,2012-12-24 06:53:00
2:53 AM,23.0,19.0,85,30.03,6.0,Calm,Calm,-,N/A,,Clear,0,2012-12-24 07:53:00
3:53 AM,21.9,18.0,85,30.01,6.0,ESE,3.5,-,N/A,,Clear,110,2012-12-24 08:53:00
4:53 AM,23.0,19.0,85,30.01,6.0,Calm,Calm,-,N/A,,Clear,0,2012-12-24 09:53:00
5:53 AM,24.1,19.9,84,29.99,6.0,Calm,Calm,-,N/A,,Clear,0,2012-12-24 10:53:00
6:53 AM,25.0,21.0,85,29.98,5.0,Calm,Calm,-,N/A,,Clear,0,2012-12-24 11:53:00
7:53 AM,28.0,21.9,78,29.96,10.0,East,3.5,-,N/A,,Clear,80,2012-12-24 12:53:00
8:53 AM,28.9,24.1,82,29.95,9.0,Calm,Calm,-,N/A,,Clear,0,2012-12-24 13:53:00
9:53 AM,30.9,25.0,79,29.94,10.0,SE,3.5,-,N/A,,Clear,130,2012-12-24 14:53:00
10:53 AM,36.0,26.1,67,29.91,10.0,ENE,4.6,-,N/A,,Clear,60,2012-12-24 15:53:00
11:53 AM,36.0,26.1,67,29.88,10.0,East,5.8,-,N/A,,Overcast,80,2012-12-24 16:53:00
12:53 PM,36.0,26.1,67,29.84,10.0,East,5.8,-,N/A,,Overcast,100,2012-12-24 17:53:00
1:53 PM,36.0,28.0,73,29.81,7.0,East,4.6,-,0.01,Rain,Light Rain,90,2012-12-24 18:53:00
2:42 PM,35.6,30.2,81,29.78,9.0,East,3.5,-,0.01,,Overcast,100,2012-12-24 19:42:00
2:53 PM,36.0,30.0,79,29.81,9.0,Calm,Calm,-,0.01,,Overcast,0,2012-12-24 19:53:00
3:53 PM,35.1,30.9,85,29.81,6.0,Calm,Calm,-,0.01,Rain,Light Rain,0,2012-12-24 20:53:00
4:38 PM,35.6,30.2,81,29.79,3.0,Calm,Calm,-,0.00,Rain,Light Rain,0,2012-12-24 21:38:00
4:53 PM,35.1,30.9,85,29.82,3.0,NNW,4.6,-,0.00,Rain,Light Rain,340,2012-12-24 21:53:00
5:08 PM,33.8,30.2,87,29.79,2.0,North,4.6,-,0.01,Rain,Light Rain,350,2012-12-24 22:08:00
5:30 PM,33.8,32.0,93,29.79,4.0,Calm,Calm,-,0.03,Rain,Light Rain,0,2012-12-24 22:30:00
5:40 PM,33.8,32.0,93,29.79,4.0,Calm,Calm,-,0.03,,Overcast,0,2012-12-24 22:40:00
5:48 PM,33.8,32.0,93,29.80,4.0,Calm,Calm,-,0.03,,Overcast,0,2012-12-24 22:48:00
5:53 PM,34.0,32.0,92,29.82,5.0,Calm,Calm,-,0.03,,Overcast,0,2012-12-24 22:53:00
6:41 PM,33.8,30.2,87,29.81,5.0,Calm,Calm,-,N/A,,Overcast,0,2012-12-24 23:41:00
6:53 PM,35.1,32.0,89,29.84,5.0,Calm,Calm,-,N/A,,Overcast,0,2012-12-24 23:53:00
7:36 PM,33.8,32.0,93,29.82,1.8,Calm,Calm,-,N/A,,Overcast,0,2012-12-25 00:36:00
7:53 PM,34.0,32.0,92,29.85,2.5,Calm,Calm,-,N/A,,Overcast,0,2012-12-25 00:53:00
8:13 PM,33.8,32.0,93,29.83,1.8,Calm,Calm,-,N/A,,Overcast,0,2012-12-25 01:13:00
8:23 PM,33.8,32.0,93,29.84,2.0,Calm,Calm,-,N/A,,Overcast,0,2012-12-25 01:23:00
8:53 PM,34.0,32.0,92,29.87,2.0,Calm,Calm,-,N/A,,Overcast,0,2012-12-25 01:53:00
9:10 PM,33.8,32.0,93,29.85,3.0,Calm,Calm,-,N/A,,Overcast,0,2012-12-25 02:10:00
9:18 PM,33.8,32.0,93,29.85,2.5,Calm,Calm,-,N/A,,Overcast,0,2012-12-25 02:18:00
9:34 PM,33.8,32.0,93,29.85,1.5,South,3.5,-,N/A,,Overcast,190,2012-12-25 02:34:00
9:43 PM,33.8,32.0,93,29.86,1.0,Calm,Calm,-,N/A,,Overcast,0,2012-12-25 02:43:00
9:53 PM,34.0,32.0,92,29.89,1.0,Calm,Calm,-,N/A,,Overcast,0,2012-12-25 02:53:00
10:37 PM,33.8,32.0,93,29.88,1.5,Calm,Calm,-,N/A,,Overcast,0,2012-12-25 03:37:00
10:53 PM,34.0,32.0,92,29.92,1.8,Calm,Calm,-,N/A,,Overcast,0,2012-12-25 03:53:00
11:09 PM,33.8,32.0,93,29.90,2.0,Calm,Calm,-,N/A,,Overcast,0,2012-12-25 04:09:00
11:29 PM,33.8,32.0,93,29.90,3.0,West,4.6,-,N/A,,Overcast,270,2012-12-25 04:29:00
11:53 PM,35.1,32.0,89,29.94,3.0,West,5.8,-,N/A,,Overcast,260,2012-12-25 04:53:00